Location: Allonne
(49.4086°N, 2.1143°E)
Time: 15:47:25
(UTC+00:00)

Cosmos 2360 Rocket - Pass Details

Date: 03 February 2023
Orbit: 832 x 846 km, 71.0° (Epoch: 25 March)

Event Time Altitude Azimuth Distance (km) Brightness Sun altitude
Rises 18:02:59 0° 183° (S) 3,373 5.5 -12.0°
Reaches altitude 10° 18:05:32 10° 176° (S) 2,445 4.7 -12.4°
Maximum altitude 18:10:44 41° 108° (ESE) 1,202 2.6 -13.3°
Enters shadow 18:15:37 12° 42° (NE) 2,332 4.0 -14.0°
